Wind_Speed
10 10 10 10 10 10 10 10 11 12 12 12 12 12 12 12 13 13 14 15 15 15 15 15 14 15 16 16 16 16 16 17 17 17 16 17 17 17 17 16 16 16 16
10 10 10 10 10 10 10 10 10 11 12 13 13 13 13 13 13 14 14 15 15 15 15 15 15 15 15 16 16 17 18 17 18 18 18 18 18 19 19 17 17 17 17
10 10 9 10 9 10 10 10 11 11 12 13 13 13 14 14 14 14 15 15 15 16 17 16 15 15 15 16 17 17 18 18 19 19 19 19 18 19 19 18 18 18 18
11 11 11 10 10 10 10 10 11 12 12 13 14 14 15 15 15 15 15 16 17 17 17 16 16 16 15 15 16 18 19 19 19 20 20 20 20 20 20 20 19 19 18
12 12 12 12 12 11 11 11 11 12 12 13 14 15 15 16 15 15 16 17 18 18 17 17 16 16 16 16 17 17 18 19 20 20 20 20 21 21 20 21 21 21 21
12 12 12 12 12 12 12 12 13 13 13 14 14 16 16 16 17 17 17 18 18 18 18 19 18 18 19 18 17 17 18 19 20 20 21 21 21 22 22 22 23 23 23
13 13 13 13 13 13 13 14 14 14 13 14 14 15 16 16 17 18 18 18 18 19 19 19 20 19 20 20 19 19 19 19 20 21 21 22 22 22 23 24 24 23 23
14 14 14 14 14 14 14 14 14 14 15 15 15 15 15 16 16 17 18 19 19 19 20 20 20 21 21 21 21 21 21 21 21 22 22 22 22 23 23 24 25 25 24
15 15 15 15 16 16 15 16 16 15 16 16 16 16 15 16 16 16 17 18 19 20 20 19 20 21 21 21 21 22 22 23 23 23 23 23 23 23 24 25 24 25 26
16 16 16 16 17 17 17 17 17 16 16 16 17 17 17 16 17 16 16 17 18 19 20 20 21 21 21 21 21 22 22 22 23 24 24 24 24 24 24 25 24 25 25
17 18 18 17 17 18 17 17 17 17 16 16 16 16 17 17 17 17 17 17 17 18 19 20 21 21 22 22 22 23 22 23 23 23 23 23 24 24 24 24 25 25 26
18 19 18 18 19 19 19 18 17 17 17 17 16 17 17 18 18 18 18 18 18 19 19 20 21 22 22 22 23 23 23 23 24 25 25 25 24 24 24 24 25 26 27
18 18 18 18 19 19 20 19 18 18 18 17 17 17 17 18 19 19 19 19 20 20 20 21 22 22 23 23 23 24 25 24 24 25 25 25 25 24 24 24 25 26 27
17 17 17 17 18 19 18 19 19 18 18 18 18 18 18 18 18 18 19 19 20 20 20 22 23 23 24 23 24 25 25 25 25 24 24 25 25 24 24 24 25 26 26
16 16 16 16 16 17 16 16 17 18 18 18 18 18 18 19 19 19 19 19 20 20 21 22 22 22 24 25 25 25 25 25 25 25 24 24 25 25 25 25 25 26 26
16 15 15 16 15 16 16 17 17 18 19 19 19 19 19 19 20 20 19 20 20 22 22 22 23 23 24 24 25 25 25 24 25 24 24 24 24 25 25 25 25 26 26
16 15 16 16 17 18 18 18 18 18 19 20 20 20 20 20 20 20 20 20 21 21 21 21 22 22 23 23 25 26 25 25 24 24 24 24 24 25 25 25 25 26 27
15 16 16 17 17 18 18 19 18 18 19 20 20 20 20 20 20 20 20 20 21 21 21 21 21 21 22 22 23 24 24 24 24 25 24 25 25 25 25 25 26 27 27
17 17 17 17 17 18 18 18 19 19 19 19 19 20 20 20 20 20 20 20 20 21 21 21 21 21 21 22 23 23 23 24 25 25 25 25 25 25 26 26 26 26 27
18 18 18 18 18 18 19 20 20 20 19 19 19 19 19 19 20 20 20 20 20 21 21 21 21 21 21 22 22 23 22 22 23 24 25 26 26 26 26 26 26 26 27
20 19 19 19 19 20 20 20 20 20 19 19 19 19 19 19 20 20 21 21 21 21 21 20 20 21 21 21 22 22 21 20 21 22 24 26 26 26 26 26 26 26 26
21 21 20 21 21 21 21 21 20 19 19 19 19 20 20 21 21 21 21 21 21 21 20 20 20 20 20 20 20 20 19 20 20 21 22 24 25 25 26 26 26 26 26
22 21 22 22 22 22 22 21 20 19 19 19 20 21 21 22 22 22 21 21 21 21 20 20 20 20 19 20 20 20 20 20 19 19 19 21 22 23 24 25 25 25 25
22 22 22 23 23 23 22 22 21 21 21 21 21 21 21 21 21 21 20 20 20 20 21 21 20 20 20 19 20 20 20 20 19 19 19 19 20 21 21 22 22 23 23
22 22 22 22 22 22 22 22 22 22 22 21 21 21 22 21 21 21 21 21 21 22 21 21 21 21 20 19 20 20 20 20 20 19 19 19 19 20 20 20 20 20 21
22 22 22 22 22 22 21 21 21 21 21 21 21 22 21 21 20 21 22 22 22 22 22 22 21 21 20 20 20 20 20 20 20 19 18 19 19 19 19 19 20 20 20
Wind_Direction
292 292 290 290 281 275 274 271 266 264 256 251 248 247 248 247 246 245 245 245 246 247 246 243 243 245 243 243 245 247 247 246 246 247 250 251 250 248 246 246 247 246 248
289 291 291 288 281 274 273 273 273 271 259 254 251 252 251 250 248 249 248 247 244 245 243 242 246 246 247 249 249 249 248 248 248 249 251 251 251 249 247 247 245 245 247
285 287 290 290 286 278 272 275 273 273 262 254 252 254 251 252 253 253 247 247 246 248 246 245 247 247 248 254 252 252 253 251 250 252 252 249 250 251 248 248 247 247 247
279 281 283 284 281 280 276 276 274 272 264 259 258 258 256 253 252 250 246 245 247 246 247 248 248 248 249 252 255 254 253 253 254 253 253 251 250 251 249 248 249 250 248
277 279 279 277 273 272 273 273 271 268 265 264 262 262 261 257 255 251 247 247 248 248 252 253 252 252 253 254 256 257 255 255 256 253 253 253 251 251 252 251 250 250 250
275 275 275 272 270 269 271 272 269 266 267 270 266 264 260 260 257 252 250 249 250 251 253 252 254 255 255 256 257 258 257 256 257 255 254 253 252 253 255 254 253 252 251
278 277 275 271 270 272 273 271 267 266 268 269 268 267 266 264 261 257 254 254 256 256 255 255 256 257 258 257 258 259 259 258 257 257 256 253 253 255 256 256 254 253 253
280 280 278 272 271 274 274 271 268 267 268 268 268 269 269 267 264 259 257 257 258 257 256 256 257 258 261 260 260 260 260 261 260 259 260 259 258 258 258 258 254 254 254
281 279 277 273 273 273 271 270 271 270 271 269 268 268 269 268 267 264 261 261 260 259 259 258 258 260 261 260 261 261 262 262 262 263 264 263 263 263 261 259 258 256 256
281 277 276 274 273 272 270 270 271 272 271 270 268 267 267 267 267 266 266 264 262 260 259 260 262 262 261 261 261 262 264 264 263 266 266 264 264 264 263 261 260 258 257
279 278 275 273 272 271 271 271 271 272 271 269 268 267 266 264 265 264 266 264 262 262 262 263 265 265 264 263 264 265 266 265 264 267 267 267 265 265 264 263 261 258 258
277 277 276 275 272 271 271 271 271 271 269 268 267 268 268 265 264 266 267 267 266 265 266 266 267 266 265 265 267 268 269 268 266 267 267 265 265 264 263 263 261 260 260
280 282 281 276 272 271 271 270 271 270 269 267 266 266 267 267 266 267 267 267 266 266 267 269 269 268 267 267 268 269 270 270 269 268 267 265 264 262 263 263 261 261 261
282 284 284 280 277 274 273 271 269 269 269 269 267 266 267 267 267 267 266 267 267 268 270 273 272 270 268 268 268 270 271 271 270 269 267 264 263 262 263 264 264 263 262
284 285 284 281 277 275 276 273 269 269 269 268 267 267 266 265 265 266 267 266 267 269 272 274 273 273 271 269 269 270 271 270 269 269 267 265 264 264 264 264 265 264 262
281 282 282 282 280 279 278 277 274 269 268 269 268 265 263 265 266 265 267 268 269 271 273 273 272 272 274 273 270 269 270 269 268 267 267 266 267 267 266 265 265 264 263
284 282 285 283 281 280 280 281 279 274 270 269 267 264 264 265 268 267 269 269 271 272 273 273 275 275 275 276 273 271 271 270 268 267 267 266 267 269 270 267 265 264 263
284 285 286 284 283 283 282 281 281 280 275 271 266 265 266 265 267 268 270 272 272 272 274 275 276 277 277 277 276 274 271 270 268 268 267 266 267 269 270 269 268 267 265
281 284 287 285 284 284 284 284 281 281 276 270 267 266 267 266 265 268 269 272 273 274 275 275 276 277 277 278 277 278 277 271 270 268 267 267 268 269 269 269 269 269 268
279 282 286 286 285 284 284 284 283 280 276 270 268 268 267 267 267 268 269 271 273 275 276 276 274 275 276 278 280 280 281 276 272 269 269 268 268 270 270 269 270 270 270
279 280 283 285 285 284 285 283 282 277 274 270 268 268 268 269 270 269 270 272 273 275 275 275 276 276 277 279 280 281 279 277 277 273 271 270 270 270 270 270 270 270 271
278 279 280 283 285 285 285 283 283 278 274 270 268 269 268 268 270 271 272 273 273 274 273 273 275 278 279 282 281 280 280 279 279 278 276 273 272 271 271 270 271 272 272
276 278 279 281 283 285 284 281 280 276 275 273 272 271 269 268 271 271 269 271 272 271 270 271 274 279 281 282 280 280 282 282 280 279 281 279 276 274 273 272 273 273 273
275 277 278 279 280 280 280 278 273 274 274 273 272 271 269 268 269 270 269 269 269 268 269 271 274 277 278 277 278 280 282 283 281 280 280 281 280 277 276 275 275 275 275
275 277 278 279 279 280 280 277 275 273 273 272 271 269 268 268 268 269 269 269 269 269 269 271 271 273 272 273 276 280 281 282 281 280 280 283 284 280 276 276 276 276 276
276 277 278 278 279 280 280 279 277 275 274 273 271 268 266 268 267 266 266 267 269 269 270 271 270 269 268 270 273 276 279 281 281 279 279 281 283 283 280 277 278 278 279
Height
5865 5865 5864 5863 5863 5862 5862 5862 5862 5862 5863 5863 5863 5864 5865 5865 5866 5867 5868 5869 5869 5870 5871 5872 5872 5873 5874 5875 5876 5877 5878 5879 5880 5881 5882 5883 5884 5885 5886 5887 5887 5889 5890
5863 5862 5862 5861 5860 5860 5859 5859 5859 5859 5860 5860 5860 5861 5862 5862 5863 5864 5864 5865 5866 5867 5867 5868 5869 5870 5871 5872 5872 5873 5874 5875 5876 5877 5878 5879 5880 5881 5882 5883 5884 5885 5886
5860 5860 5859 5859 5858 5857 5857 5857 5857 5857 5857 5857 5857 5858 5858 5859 5859 5860 5860 5862 5863 5863 5864 5864 5865 5867 5867 5868 5869 5870 5870 5871 5872 5873 5874 5875 5876 5877 5878 5879 5880 5881 5882
5857 5857 5856 5856 5855 5855 5854 5854 5854 5854 5854 5854 5854 5855 5855 5855 5856 5856 5857 5858 5858 5859 5860 5861 5862 5863 5864 5865 5865 5866 5866 5867 5868 5869 5870 5871 5872 5873 5874 5875 5876 5877 5878
5854 5854 5853 5853 5852 5852 5852 5851 5851 5851 5851 5851 5851 5852 5852 5852 5852 5853 5853 5853 5854 5855 5856 5857 5858 5859 5860 5860 5861 5862 5862 5863 5864 5864 5865 5866 5867 5868 5869 5870 5871 5872 5874
5851 5850 5850 5849 5849 5849 5848 5848 5848 5848 5848 5848 5848 5848 5848 5849 5849 5849 5850 5850 5851 5852 5852 5853 5854 5854 5855 5856 5857 5857 5858 5858 5859 5860 5860 5861 5862 5863 5864 5865 5866 5867 5868
5847 5847 5846 5846 5846 5845 5845 5845 5844 5844 5844 5844 5844 5844 5844 5844 5845 5845 5846 5846 5847 5847 5848 5849 5849 5850 5850 5851 5852 5852 5853 5854 5854 5855 5855 5856 5857 5858 5859 5860 5861 5862 5862
5844 5843 5842 5842 5842 5841 5841 5841 5841 5840 5840 5840 5840 5840 5840 5841 5840 5841 5841 5842 5842 5843 5843 5844 5845 5845 5846 5846 5847 5848 5848 5848 5849 5849 5850 5850 5851 5852 5853 5854 5855 5856 5856
5840 5839 5838 5838 5837 5837 5837 5836 5836 5836 5836 5836 5836 5836 5836 5836 5836 5836 5837 5837 5837 5838 5838 5839 5839 5840 5841 5841 5842 5842 5843 5843 5843 5844 5844 5845 5845 5846 5847 5847 5848 5849 5850
5836 5835 5834 5833 5833 5833 5832 5832 5831 5831 5831 5831 5831 5831 5832 5832 5832 5832 5832 5832 5832 5833 5833 5834 5834 5835 5835 5836 5836 5837 5837 5837 5838 5838 5839 5839 5839 5839 5840 5841 5841 5843 5843
5832 5831 5830 5829 5828 5828 5827 5827 5827 5826 5826 5826 5826 5826 5827 5827 5827 5827 5828 5828 5828 5828 5828 5829 5829 5830 5830 5830 5831 5831 5831 5831 5832 5832 5833 5833 5833 5833 5834 5834 5835 5836 5836
5828 5826 5825 5824 5824 5823 5822 5822 5821 5821 5821 5821 5821 5821 5822 5822 5822 5822 5822 5823 5823 5823 5823 5824 5824 5824 5824 5825 5825 5826 5826 5826 5826 5826 5826 5827 5827 5827 5828 5828 5828 5829 5829
5823 5822 5820 5819 5818 5818 5817 5817 5816 5816 5816 5816 5816 5816 5816 5816 5817 5817 5817 5817 5818 5818 5818 5818 5818 5818 5818 5818 5819 5819 5819 5819 5819 5819 5820 5820 5820 5821 5821 5821 5821 5822 5822
5819 5817 5816 5815 5813 5812 5812 5811 5811 5810 5811 5811 5811 5811 5811 5811 5811 5811 5812 5812 5812 5813 5813 5812 5812 5812 5812 5812 5812 5813 5812 5812 5813 5813 5813 5813 5813 5814 5814 5814 5814 5814 5815
5814 5813 5812 5810 5809 5808 5807 5806 5805 5805 5805 5806 5805 5805 5805 5805 5806 5806 5806 5806 5807 5807 5807 5806 5806 5806 5805 5806 5806 5806 5806 5806 5806 5806 5806 5806 5806 5807 5807 5807 5807 5807 5807
5810 5809 5808 5806 5805 5804 5802 5801 5800 5800 5800 5800 5800 5800 5800 5800 5800 5800 5801 5801 5801 5801 5801 5800 5800 5800 5799 5799 5799 5799 5799 5799 5799 5799 5799 5799 5799 5799 5799 5799 5799 5799 5799
5806 5804 5803 5802 5801 5799 5798 5796 5795 5795 5794 5794 5794 5794 5794 5794 5794 5795 5795 5795 5795 5795 5795 5795 5794 5793 5793 5792 5792 5792 5792 5792 5792 5792 5792 5792 5792 5792 5792 5792 5792 5792 5792
5801 5800 5799 5798 5796 5794 5793 5791 5790 5789 5789 5788 5788 5788 5788 5789 5789 5789 5789 5789 5789 5789 5789 5789 5788 5787 5787 5786 5785 5785 5784 5784 5784 5784 5784 5785 5785 5785 5784 5784 5784 5784 5784
5797 5796 5794 5793 5791 5789 5788 5786 5785 5784 5783 5783 5782 5783 5783 5783 5783 5783 5783 5783 5783 5783 5783 5783 5782 5781 5781 5780 5779 5778 5777 5777 5776 5776 5777 5777 5777 5777 5777 5777 5776 5776 5776
5792 5791 5789 5788 5786 5784 5782 5780 5779 5778 5777 5777 5777 5777 5777 5777 5778 5778 5778 5778 5778 5777 5777 5777 5776 5775 5775 5774 5773 5772 5771 5770 5769 5769 5768 5769 5769 5769 5769 5769 5769 5768 5768
5787 5785 5784 5782 5780 5778 5777 5775 5773 5772 5772 5771 5771 5771 5771 5771 5772 5772 5772 5772 5772 5771 5771 5770 5770 5769 5769 5768 5767 5766 5765 5764 5762 5762 5761 5761 5761 5761 5761 5761 5760 5760 5760
5781 5780 5778 5777 5775 5772 5770 5769 5767 5766 5766 5766 5766 5765 5765 5765 5766 5766 5766 5766 5766 5765 5765 5765 5764 5764 5763 5762 5761 5760 5759 5758 5757 5756 5755 5754 5753 5753 5753 5753 5753 5752 5752
5775 5774 5772 5770 5769 5767 5765 5763 5762 5761 5761 5760 5760 5759 5759 5759 5759 5759 5759 5759 5759 5759 5759 5759 5759 5758 5757 5756 5755 5754 5753 5752 5751 5750 5748 5747 5747 5746 5746 5745 5745 5745 5744
5768 5767 5766 5764 5762 5760 5759 5757 5756 5755 5755 5754 5754 5753 5753 5753 5753 5753 5753 5753 5753 5753 5753 5753 5753 5752 5751 5751 5750 5749 5747 5746 5745 5744 5743 5742 5740 5740 5739 5739 5738 5738 5737
5762 5761 5759 5758 5756 5754 5753 5751 5750 5749 5748 5748 5747 5747 5747 5747 5747 5747 5747 5747 5747 5747 5746 5746 5746 5746 5745 5745 5744 5743 5742 5741 5740 5739 5737 5736 5735 5734 5733 5733 5732 5731 5731
5755 5754 5753 5752 5750 5748 5747 5746 5744 5743 5742 5741 5741 5740 5740 5740 5741 5740 5740 5741 5741 5741 5740 5739 5739 5739 5739 5738 5738 5737 5736 5735 5734 5733 5732 5731 5730 5728 5728 5727 5726 5725 5724